Year,Month,Day,Hour,Minute,Value (Times are PST for windspeed in km/hr)
2015,10,09,00,00,1.20
2015,10,09,00,01,6.70
2015,10,09,00,02,2.80
2015,10,09,00,03,3.60
2015,10,09,00,04,2.60
2015,10,09,00,05,3.00
2015,10,09,00,06,8.00
2015,10,09,00,07,2.40
2015,10,09,00,08,6.40
2015,10,09,00,09,2.80
2015,10,09,00,10,2.50
2015,10,09,00,11,2.60
2015,10,09,00,12,0.80
2015,10,09,00,13,3.90
2015,10,09,00,14,3.60
2015,10,09,00,15,2.30
2015,10,09,00,16,0.70
2015,10,09,00,17,4.70
2015,10,09,00,18,4.60
2015,10,09,00,19,2.00
2015,10,09,00,20,1.50
2015,10,09,00,21,5.10
2015,10,09,00,22,2.70
2015,10,09,00,23,3.20
2015,10,09,00,24,3.70
2015,10,09,00,25,3.70
2015,10,09,00,26,4.50
2015,10,09,00,27,4.70
2015,10,09,00,28,2.30
2015,10,09,00,29,2.00
2015,10,09,00,30,1.70
2015,10,09,00,31,0.70
2015,10,09,00,32,2.30
2015,10,09,00,33,5.50
2015,10,09,00,34,1.90
2015,10,09,00,35,4.00
2015,10,09,00,36,4.40
2015,10,09,00,37,1.00
2015,10,09,00,38,2.10
2015,10,09,00,39,5.50
2015,10,09,00,40,7.00
2015,10,09,00,41,6.50
2015,10,09,00,42,2.60
2015,10,09,00,43,3.40
2015,10,09,00,44,4.50
2015,10,09,00,45,5.40
2015,10,09,00,46,4.80
2015,10,09,00,47,5.60
2015,10,09,00,48,3.80
2015,10,09,00,49,2.00
2015,10,09,00,50,3.60
2015,10,09,00,51,3.90
2015,10,09,00,52,2.90
2015,10,09,00,53,2.10
2015,10,09,00,54,0.00
2015,10,09,00,55,1.10
2015,10,09,00,56,3.70
2015,10,09,00,57,4.70
2015,10,09,00,58,6.30
2015,10,09,00,59,6.50
2015,10,09,01,00,5.50
2015,10,09,01,01,5.70
2015,10,09,01,02,4.20
2015,10,09,01,03,3.80
2015,10,09,01,04,5.20
2015,10,09,01,05,3.10
2015,10,09,01,06,2.70
2015,10,09,01,07,2.90
2015,10,09,01,08,2.70
2015,10,09,01,09,2.10
2015,10,09,01,10,1.00
2015,10,09,01,11,1.70
2015,10,09,01,12,3.00
2015,10,09,01,13,1.80
2015,10,09,01,14,4.20
2015,10,09,01,15,3.00
2015,10,09,01,16,3.20
2015,10,09,01,17,3.80
2015,10,09,01,18,4.70
2015,10,09,01,19,7.60
2015,10,09,01,20,7.90
2015,10,09,01,21,5.40
2015,10,09,01,22,7.10
2015,10,09,01,23,6.40
2015,10,09,01,24,6.70
2015,10,09,01,25,6.60
2015,10,09,01,26,15.20
2015,10,09,01,27,5.50
2015,10,09,01,28,6.90
2015,10,09,01,29,7.60
2015,10,09,01,30,8.90
2015,10,09,01,31,7.60
2015,10,09,01,32,6.50
2015,10,09,01,33,3.10
2015,10,09,01,34,4.90
2015,10,09,01,35,14.00
2015,10,09,01,36,17.30
2015,10,09,01,37,8.00
2015,10,09,01,38,13.80
2015,10,09,01,39,10.00
2015,10,09,01,40,17.00
2015,10,09,01,41,11.90
2015,10,09,01,42,11.20
2015,10,09,01,43,12.70
2015,10,09,01,44,13.40
2015,10,09,01,45,10.20
2015,10,09,01,46,10.00
2015,10,09,01,47,10.50
2015,10,09,01,48,7.90
2015,10,09,01,49,9.70
2015,10,09,01,50,8.50
2015,10,09,01,51,7.00
2015,10,09,01,52,13.10
2015,10,09,01,53,7.00
2015,10,09,01,54,11.90
2015,10,09,01,55,8.20
2015,10,09,01,56,8.20
2015,10,09,01,57,17.50
2015,10,09,01,58,7.90
2015,10,09,01,59,10.40
2015,10,09,02,00,8.90
2015,10,09,02,01,5.80
2015,10,09,02,02,4.10
2015,10,09,02,03,5.80
2015,10,09,02,04,8.60
2015,10,09,02,05,7.00
2015,10,09,02,06,5.30
2015,10,09,02,07,9.10
2015,10,09,02,08,4.90
2015,10,09,02,09,3.10
2015,10,09,02,10,4.50
2015,10,09,02,11,12.30
2015,10,09,02,12,9.20
2015,10,09,02,13,9.00
2015,10,09,02,14,4.60
2015,10,09,02,15,6.30
2015,10,09,02,16,5.40
2015,10,09,02,17,11.10
2015,10,09,02,18,8.00
2015,10,09,02,19,8.90
2015,10,09,02,20,10.20
2015,10,09,02,21,8.60
2015,10,09,02,22,9.70
2015,10,09,02,23,4.80
2015,10,09,02,24,10.80
2015,10,09,02,25,14.90
2015,10,09,02,26,11.10
2015,10,09,02,27,6.20
2015,10,09,02,28,12.80
2015,10,09,02,29,13.20
2015,10,09,02,30,14.10
2015,10,09,02,31,13.30
2015,10,09,02,32,13.80
2015,10,09,02,33,10.60
2015,10,09,02,34,14.50
2015,10,09,02,35,6.40
2015,10,09,02,36,9.40
2015,10,09,02,37,5.80
2015,10,09,02,38,6.10
2015,10,09,02,39,6.40
2015,10,09,02,40,5.90
2015,10,09,02,41,11.20
2015,10,09,02,42,4.40
2015,10,09,02,43,12.30
2015,10,09,02,44,11.50
2015,10,09,02,45,9.30
2015,10,09,02,46,12.00
2015,10,09,02,47,7.70
2015,10,09,02,48,11.00
2015,10,09,02,49,10.90
2015,10,09,02,50,8.60
2015,10,09,02,51,11.60
2015,10,09,02,52,11.80
2015,10,09,02,53,10.70
2015,10,09,02,54,7.00
2015,10,09,02,55,11.60
2015,10,09,02,56,6.10
2015,10,09,02,57,13.00
2015,10,09,02,58,11.40
2015,10,09,02,59,9.40
2015,10,09,03,00,6.80
2015,10,09,03,01,5.10
2015,10,09,03,02,8.40
2015,10,09,03,03,10.80
2015,10,09,03,04,12.50
2015,10,09,03,05,8.80
2015,10,09,03,06,6.70
2015,10,09,03,07,8.10
2015,10,09,03,08,13.40
2015,10,09,03,09,14.50
2015,10,09,03,10,7.30
2015,10,09,03,11,8.60
2015,10,09,03,12,8.40
2015,10,09,03,13,10.40
2015,10,09,03,14,10.70
2015,10,09,03,15,9.20
2015,10,09,03,16,16.30
2015,10,09,03,17,13.00
2015,10,09,03,18,10.70
2015,10,09,03,19,13.60
2015,10,09,03,20,13.30
2015,10,09,03,21,6.70
2015,10,09,03,22,7.20
2015,10,09,03,23,10.50
2015,10,09,03,24,3.50
2015,10,09,03,25,7.50
2015,10,09,03,26,12.70
2015,10,09,03,27,12.60
2015,10,09,03,28,7.90
2015,10,09,03,29,6.00
2015,10,09,03,30,5.80
2015,10,09,03,31,7.90
2015,10,09,03,32,6.90
2015,10,09,03,33,8.70
2015,10,09,03,34,6.90
2015,10,09,03,35,10.10
2015,10,09,03,36,4.10
2015,10,09,03,37,5.60
2015,10,09,03,38,13.20
2015,10,09,03,39,9.80
2015,10,09,03,40,8.40
2015,10,09,03,41,12.70
2015,10,09,03,42,5.10
2015,10,09,03,43,9.70
2015,10,09,03,44,6.80
2015,10,09,03,45,7.80
2015,10,09,03,46,5.90
2015,10,09,03,47,8.80
2015,10,09,03,48,10.10
2015,10,09,03,49,4.90
2015,10,09,03,50,8.30
2015,10,09,03,51,8.80
2015,10,09,03,52,9.70
2015,10,09,03,53,4.20
2015,10,09,03,54,5.90
2015,10,09,03,55,7.10
2015,10,09,03,56,13.10
2015,10,09,03,57,9.90
2015,10,09,03,58,10.60
2015,10,09,03,59,6.50
2015,10,09,04,00,10.00
2015,10,09,04,01,9.50
2015,10,09,04,02,10.30
2015,10,09,04,03,14.10
2015,10,09,04,04,18.00
2015,10,09,04,05,11.40
2015,10,09,04,06,14.20
2015,10,09,04,07,8.50
2015,10,09,04,08,14.20
2015,10,09,04,09,13.20
2015,10,09,04,10,9.60
2015,10,09,04,11,12.70
2015,10,09,04,12,10.80
2015,10,09,04,13,17.20
2015,10,09,04,14,18.40
2015,10,09,04,15,11.10
2015,10,09,04,16,20.50
2015,10,09,04,17,21.50
2015,10,09,04,18,21.00
2015,10,09,04,19,15.80
2015,10,09,04,20,11.90
2015,10,09,04,21,17.60
2015,10,09,04,22,22.00
2015,10,09,04,23,23.30
2015,10,09,04,24,20.10
2015,10,09,04,25,17.60
2015,10,09,04,26,22.20
2015,10,09,04,27,17.20
2015,10,09,04,28,12.70
2015,10,09,04,29,15.70
2015,10,09,04,30,22.00
2015,10,09,04,31,22.50
2015,10,09,04,32,14.00
2015,10,09,04,33,15.10
2015,10,09,04,34,14.10
2015,10,09,04,35,10.80
2015,10,09,04,36,20.90
2015,10,09,04,37,20.60
2015,10,09,04,38,18.10
2015,10,09,04,39,11.70
2015,10,09,04,40,11.60
2015,10,09,04,41,10.70
2015,10,09,04,42,14.50
2015,10,09,04,43,10.30
2015,10,09,04,44,13.50
2015,10,09,04,45,13.10
2015,10,09,04,46,18.40
2015,10,09,04,47,25.10
2015,10,09,04,48,26.50
2015,10,09,04,49,20.70
2015,10,09,04,50,11.40
2015,10,09,04,51,15.60
2015,10,09,04,52,12.60
2015,10,09,04,53,16.10
2015,10,09,04,54,21.90
2015,10,09,04,55,20.00
2015,10,09,04,56,20.10
2015,10,09,04,57,19.40
2015,10,09,04,58,22.80
2015,10,09,04,59,19.90
2015,10,09,05,00,17.80
2015,10,09,05,01,9.80
2015,10,09,05,02,22.20
2015,10,09,05,03,16.00
2015,10,09,05,04,14.10
2015,10,09,05,05,16.50
2015,10,09,05,06,19.40
2015,10,09,05,07,23.40
2015,10,09,05,08,24.00
2015,10,09,05,09,28.10
2015,10,09,05,10,14.00
2015,10,09,05,11,21.30
2015,10,09,05,12,20.60
2015,10,09,05,13,13.70
2015,10,09,05,14,16.50
2015,10,09,05,15,18.60
2015,10,09,05,16,18.60
2015,10,09,05,17,13.40
2015,10,09,05,18,10.70
2015,10,09,05,19,15.50
2015,10,09,05,20,14.60
2015,10,09,05,21,18.10
2015,10,09,05,22,19.70
2015,10,09,05,23,19.60
2015,10,09,05,24,12.40
2015,10,09,05,25,13.80
2015,10,09,05,26,16.90
2015,10,09,05,27,13.70
2015,10,09,05,28,17.90
2015,10,09,05,29,13.20
2015,10,09,05,30,20.50
2015,10,09,05,31,14.70
2015,10,09,05,32,17.90
2015,10,09,05,33,13.60
2015,10,09,05,34,19.40
2015,10,09,05,35,10.90
2015,10,09,05,36,17.40
2015,10,09,05,37,10.50
2015,10,09,05,38,14.10
2015,10,09,05,39,8.50
2015,10,09,05,40,19.40
2015,10,09,05,41,11.10
2015,10,09,05,42,11.50
2015,10,09,05,43,14.50
2015,10,09,05,44,18.20
2015,10,09,05,45,14.40
2015,10,09,05,46,15.40
2015,10,09,05,47,17.30
2015,10,09,05,48,19.90
2015,10,09,05,49,19.00
2015,10,09,05,50,14.20
2015,10,09,05,51,17.50
2015,10,09,05,52,14.60
2015,10,09,05,53,17.40
2015,10,09,05,54,15.80
2015,10,09,05,55,17.90
2015,10,09,05,56,17.40
2015,10,09,05,57,20.20
2015,10,09,05,58,12.60
2015,10,09,05,59,12.80
2015,10,09,06,00,18.60
2015,10,09,06,01,13.90
2015,10,09,06,02,16.90
2015,10,09,06,03,13.70
2015,10,09,06,04,12.40
2015,10,09,06,05,12.80
2015,10,09,06,06,11.40
2015,10,09,06,07,9.10
2015,10,09,06,08,10.90
2015,10,09,06,09,9.50
2015,10,09,06,10,6.60
2015,10,09,06,11,8.50
2015,10,09,06,12,4.80
2015,10,09,06,13,6.60
2015,10,09,06,14,2.30
2015,10,09,06,15,6.70
2015,10,09,06,16,8.80
2015,10,09,06,17,5.70
2015,10,09,06,18,8.50
2015,10,09,06,19,6.20
2015,10,09,06,20,7.60
2015,10,09,06,21,6.30
2015,10,09,06,22,12.20
2015,10,09,06,23,11.40
2015,10,09,06,24,9.50
2015,10,09,06,25,7.40
2015,10,09,06,26,13.20
2015,10,09,06,27,9.30
2015,10,09,06,28,10.50
2015,10,09,06,29,8.30
2015,10,09,06,30,10.10
2015,10,09,06,31,6.30
2015,10,09,06,32,11.00
2015,10,09,06,33,13.70
2015,10,09,06,34,10.00
2015,10,09,06,35,12.00
2015,10,09,06,36,16.20
2015,10,09,06,37,8.00
2015,10,09,06,38,9.70
2015,10,09,06,39,11.90
2015,10,09,06,40,14.10
2015,10,09,06,41,15.30
2015,10,09,06,42,15.10
2015,10,09,06,43,8.90
2015,10,09,06,44,15.50
2015,10,09,06,45,26.10
2015,10,09,06,46,22.20
2015,10,09,06,47,20.30
2015,10,09,06,48,13.70
2015,10,09,06,49,12.40
2015,10,09,06,50,21.90
2015,10,09,06,51,17.60
2015,10,09,06,52,12.80
2015,10,09,06,53,9.70
2015,10,09,06,54,19.40
2015,10,09,06,55,18.50
2015,10,09,06,56,16.30
2015,10,09,06,57,6.70
2015,10,09,06,58,15.90
2015,10,09,06,59,6.60
2015,10,09,07,00,9.70
2015,10,09,07,01,13.00
2015,10,09,07,02,8.50
2015,10,09,07,03,8.90
2015,10,09,07,04,14.10
2015,10,09,07,05,8.50
2015,10,09,07,06,9.40
2015,10,09,07,07,14.90
2015,10,09,07,08,15.00
2015,10,09,07,09,14.80
2015,10,09,07,10,9.50
2015,10,09,07,11,5.90
2015,10,09,07,12,14.10
2015,10,09,07,13,20.50
2015,10,09,07,14,9.80
2015,10,09,07,15,11.20
2015,10,09,07,16,18.70
2015,10,09,07,17,10.60
2015,10,09,07,18,11.30
2015,10,09,07,19,11.60
2015,10,09,07,20,20.70
2015,10,09,07,21,19.20
2015,10,09,07,22,8.90
2015,10,09,07,23,8.60
2015,10,09,07,24,15.10
2015,10,09,07,25,16.30
2015,10,09,07,26,18.80
2015,10,09,07,27,20.60
2015,10,09,07,28,17.60
2015,10,09,07,29,14.20
2015,10,09,07,30,19.10
2015,10,09,07,31,21.90
2015,10,09,07,32,20.80
2015,10,09,07,33,15.50
2015,10,09,07,34,22.80
2015,10,09,07,35,20.60
2015,10,09,07,36,18.70
2015,10,09,07,37,27.20
2015,10,09,07,38,17.90
2015,10,09,07,39,20.10
2015,10,09,07,40,19.50
2015,10,09,07,41,21.30
2015,10,09,07,42,16.60
2015,10,09,07,43,15.10
2015,10,09,07,44,14.70
2015,10,09,07,45,13.40
2015,10,09,07,46,9.00
2015,10,09,07,47,16.40
2015,10,09,07,48,17.30
2015,10,09,07,49,10.80
2015,10,09,07,50,17.20
2015,10,09,07,51,13.20
2015,10,09,07,52,12.20
2015,10,09,07,53,16.40
2015,10,09,07,54,14.20
2015,10,09,07,55,12.50
2015,10,09,07,56,14.00
2015,10,09,07,57,10.00
2015,10,09,07,58,12.70
2015,10,09,07,59,10.00
2015,10,09,08,00,16.70
2015,10,09,08,01,11.60
2015,10,09,08,02,21.20
2015,10,09,08,03,14.20
2015,10,09,08,04,16.00
2015,10,09,08,05,9.50
2015,10,09,08,06,7.30
2015,10,09,08,07,9.00
2015,10,09,08,08,16.60
2015,10,09,08,09,17.30
2015,10,09,08,10,16.00
2015,10,09,08,11,14.40
2015,10,09,08,12,13.80
2015,10,09,08,13,10.60
2015,10,09,08,14,12.70
2015,10,09,08,15,16.60
2015,10,09,08,16,15.60
2015,10,09,08,17,16.10
2015,10,09,08,18,20.30
2015,10,09,08,19,15.50
2015,10,09,08,20,16.00
2015,10,09,08,21,17.90
2015,10,09,08,22,11.20
2015,10,09,08,23,13.70
2015,10,09,08,24,13.80
2015,10,09,08,25,15.40
2015,10,09,08,26,20.60
2015,10,09,08,27,14.00
2015,10,09,08,28,16.80
2015,10,09,08,29,22.80
2015,10,09,08,30,11.30
2015,10,09,08,31,11.70
2015,10,09,08,32,11.40
2015,10,09,08,33,12.20
2015,10,09,08,34,11.00
2015,10,09,08,35,7.30
2015,10,09,08,36,6.30
2015,10,09,08,37,22.30
2015,10,09,08,38,17.80
2015,10,09,08,39,31.40
2015,10,09,08,40,22.60
2015,10,09,08,41,21.80
2015,10,09,08,42,11.40
2015,10,09,08,43,22.80
2015,10,09,08,44,29.40
2015,10,09,08,45,20.80
2015,10,09,08,46,13.60
2015,10,09,08,47,20.30
2015,10,09,08,48,17.20
2015,10,09,08,49,16.80
2015,10,09,08,50,20.00
2015,10,09,08,51,21.90
2015,10,09,08,52,18.40
2015,10,09,08,53,21.50
2015,10,09,08,54,27.40
2015,10,09,08,55,14.40
2015,10,09,08,56,14.60
2015,10,09,08,57,18.40
2015,10,09,08,58,20.70
2015,10,09,08,59,20.30
2015,10,09,09,00,21.60
2015,10,09,09,01,25.00
2015,10,09,09,02,28.40
2015,10,09,09,03,13.60
2015,10,09,09,04,25.40
2015,10,09,09,05,18.20
2015,10,09,09,06,21.00
2015,10,09,09,07,17.10
2015,10,09,09,08,16.00
2015,10,09,09,09,23.40
2015,10,09,09,10,16.30
2015,10,09,09,11,11.70
2015,10,09,09,12,21.60
2015,10,09,09,13,17.00
2015,10,09,09,14,15.00
2015,10,09,09,15,12.00
2015,10,09,09,16,16.20
2015,10,09,09,17,12.90
2015,10,09,09,18,20.30
2015,10,09,09,19,11.40
2015,10,09,09,20,11.10
2015,10,09,09,21,9.50
2015,10,09,09,22,16.00
2015,10,09,09,23,9.80
2015,10,09,09,24,9.50
2015,10,09,09,25,9.80
2015,10,09,09,26,11.00
2015,10,09,09,27,5.50
2015,10,09,09,28,11.90
2015,10,09,09,29,8.20
2015,10,09,09,30,9.80
2015,10,09,09,31,11.60
2015,10,09,09,32,15.30
2015,10,09,09,33,9.00
2015,10,09,09,34,12.30
2015,10,09,09,35,13.40
2015,10,09,09,36,12.50
2015,10,09,09,37,9.50
2015,10,09,09,38,13.80
2015,10,09,09,39,10.60
2015,10,09,09,40,12.60
2015,10,09,09,41,14.80
2015,10,09,09,42,10.70
2015,10,09,09,43,10.50
2015,10,09,09,44,10.70
2015,10,09,09,45,11.50
2015,10,09,09,46,12.20
2015,10,09,09,47,12.00
2015,10,09,09,48,14.50
2015,10,09,09,49,8.00
2015,10,09,09,50,12.80
2015,10,09,09,51,14.10
2015,10,09,09,52,8.60
2015,10,09,09,53,9.90
2015,10,09,09,54,10.90
2015,10,09,09,55,16.10
2015,10,09,09,56,9.40
2015,10,09,09,57,9.60
2015,10,09,09,58,14.40
2015,10,09,09,59,12.30
2015,10,09,10,00,18.90
2015,10,09,10,01,16.20
2015,10,09,10,02,12.60
2015,10,09,10,03,14.10
2015,10,09,10,04,8.50
2015,10,09,10,05,9.50
2015,10,09,10,06,8.50
2015,10,09,10,07,17.20
2015,10,09,10,08,9.10
2015,10,09,10,09,15.10
2015,10,09,10,10,18.00
2015,10,09,10,11,12.80
2015,10,09,10,12,11.10
2015,10,09,10,13,9.70
2015,10,09,10,14,10.90
2015,10,09,10,15,10.00
2015,10,09,10,16,17.20
2015,10,09,10,17,21.50
2015,10,09,10,18,17.00
2015,10,09,10,19,16.90
2015,10,09,10,20,13.90
2015,10,09,10,21,10.40
2015,10,09,10,22,11.60
2015,10,09,10,23,9.20
2015,10,09,10,24,12.10
2015,10,09,10,25,8.80
2015,10,09,10,26,14.40
2015,10,09,10,27,10.80
2015,10,09,10,28,9.10
2015,10,09,10,29,8.10
2015,10,09,10,30,16.40
2015,10,09,10,31,14.50
2015,10,09,10,32,10.10
2015,10,09,10,33,10.30
2015,10,09,10,34,13.40
2015,10,09,10,35,19.30
2015,10,09,10,36,8.90
2015,10,09,10,37,13.30
2015,10,09,10,38,11.90
2015,10,09,10,39,7.80
2015,10,09,10,40,13.10
2015,10,09,10,41,10.90
2015,10,09,10,42,13.20
2015,10,09,10,43,12.20
2015,10,09,10,44,7.30
2015,10,09,10,45,6.90
2015,10,09,10,46,9.10
2015,10,09,10,47,16.60
2015,10,09,10,48,13.10
2015,10,09,10,49,19.60
2015,10,09,10,50,11.40
2015,10,09,10,51,8.20
2015,10,09,10,52,6.80
2015,10,09,10,53,17.10
2015,10,09,10,54,13.50
2015,10,09,10,55,14.10
2015,10,09,10,56,19.10
2015,10,09,10,57,12.50
2015,10,09,10,58,7.50
2015,10,09,10,59,21.50
2015,10,09,11,00,16.60
2015,10,09,11,01,10.90
2015,10,09,11,02,9.60
2015,10,09,11,03,16.10
2015,10,09,11,04,13.20
2015,10,09,11,05,25.30
2015,10,09,11,06,20.50
2015,10,09,11,07,10.10
2015,10,09,11,08,18.60
2015,10,09,11,09,18.70
2015,10,09,11,10,22.70
2015,10,09,11,11,21.20
2015,10,09,11,12,22.50
2015,10,09,11,13,21.40
2015,10,09,11,14,19.10
2015,10,09,11,15,13.30
2015,10,09,11,16,21.80
2015,10,09,11,17,14.60
2015,10,09,11,18,22.10
2015,10,09,11,19,22.50
2015,10,09,11,20,20.90
2015,10,09,11,21,17.30
2015,10,09,11,22,15.60
2015,10,09,11,23,14.10
2015,10,09,11,24,17.70
2015,10,09,11,25,20.40
2015,10,09,11,26,14.60
2015,10,09,11,27,16.90
2015,10,09,11,28,15.40
2015,10,09,11,29,15.00
2015,10,09,11,30,9.40
2015,10,09,11,31,13.40
2015,10,09,11,32,23.70
2015,10,09,11,33,22.10
2015,10,09,11,34,15.10
2015,10,09,11,35,18.50
2015,10,09,11,36,19.40
2015,10,09,11,37,17.50
2015,10,09,11,38,24.90
2015,10,09,11,39,24.90
2015,10,09,11,40,17.50
2015,10,09,11,41,22.00
2015,10,09,11,42,25.70
2015,10,09,11,43,17.30
2015,10,09,11,44,29.10
2015,10,09,11,45,32.20
2015,10,09,11,46,32.20
2015,10,09,11,47,32.20
2015,10,09,11,48,32.20
2015,10,09,11,49,32.20
2015,10,09,11,50,32.20
2015,10,09,11,51,32.20
2015,10,09,11,52,32.20
2015,10,09,11,53,32.20
2015,10,09,11,54,32.20
2015,10,09,21,57,30.70
2015,10,09,21,58,29.70
2015,10,09,21,59,32.30
2015,10,09,22,00,35.10
2015,10,09,22,01,31.80
2015,10,09,22,02,40.20
2015,10,09,22,03,26.60
2015,10,09,22,04,24.00
2015,10,09,22,05,32.50
2015,10,09,22,06,32.40
2015,10,09,22,07,35.20
2015,10,09,22,08,19.10
2015,10,09,22,09,22.70
2015,10,09,22,10,16.10
2015,10,09,22,11,21.30
2015,10,09,22,12,27.70
2015,10,09,22,13,27.70
2015,10,09,22,14,38.70
2015,10,09,22,15,24.00
2015,10,09,22,16,32.90
2015,10,09,22,17,31.60
2015,10,09,22,18,36.80
2015,10,09,22,19,29.20
2015,10,09,22,20,35.90
2015,10,09,22,21,26.50
2015,10,09,22,22,21.80
2015,10,09,22,23,24.30
2015,10,09,22,24,26.00
2015,10,09,22,25,18.70
2015,10,09,22,26,30.40
2015,10,09,22,27,28.10
2015,10,09,22,28,20.40
2015,10,09,22,29,37.40
2015,10,09,22,30,21.90
2015,10,09,22,31,19.80
2015,10,09,22,32,24.80
2015,10,09,22,33,28.00
2015,10,09,22,34,30.60
2015,10,09,22,35,21.30
2015,10,09,22,36,17.40
2015,10,09,22,37,27.80
2015,10,09,22,38,20.80
2015,10,09,22,39,25.50
2015,10,09,22,40,24.90
2015,10,09,22,41,16.50
2015,10,09,22,42,24.10
2015,10,09,22,43,17.60
2015,10,09,22,44,23.10
2015,10,09,22,45,29.10
2015,10,09,22,46,19.30
2015,10,09,22,47,29.60
2015,10,09,22,48,18.80
2015,10,09,22,49,25.90
2015,10,09,22,50,34.70
2015,10,09,22,51,20.40
2015,10,09,22,52,18.90
2015,10,09,22,53,27.50
2015,10,09,22,54,25.30
2015,10,09,22,55,19.50
2015,10,09,22,56,23.90
2015,10,09,22,57,24.40
2015,10,09,22,58,27.20
2015,10,09,22,59,45.30
2015,10,09,23,00,26.80
2015,10,09,23,01,27.50
2015,10,09,23,02,24.90
2015,10,09,23,03,39.20
2015,10,09,23,04,26.20
2015,10,09,23,05,28.00
2015,10,09,23,06,13.90
2015,10,09,23,07,29.80
2015,10,09,23,08,23.10
2015,10,09,23,09,18.60
2015,10,09,23,10,23.60
2015,10,09,23,11,32.90
2015,10,09,23,12,31.30
2015,10,09,23,13,23.00
2015,10,09,23,14,19.80
2015,10,09,23,15,31.10
2015,10,09,23,16,16.40
2015,10,09,23,17,17.00
2015,10,09,23,18,27.70
2015,10,09,23,19,17.00
2015,10,09,23,20,29.40
2015,10,09,23,21,19.70
2015,10,09,23,22,22.30
2015,10,09,23,23,23.40
2015,10,09,23,24,18.80
2015,10,09,23,25,20.60
2015,10,09,23,26,20.00
2015,10,09,23,27,20.80
2015,10,09,23,28,24.10
2015,10,09,23,29,21.60
2015,10,09,23,30,18.10
2015,10,09,23,31,27.20
2015,10,09,23,32,18.90
2015,10,09,23,33,17.30
2015,10,09,23,34,18.90
2015,10,09,23,35,27.70
2015,10,09,23,36,21.40
2015,10,09,23,37,30.00
2015,10,09,23,38,22.40
2015,10,09,23,39,24.60
2015,10,09,23,40,23.40
2015,10,09,23,41,20.00
2015,10,09,23,42,23.70
2015,10,09,23,43,31.20
2015,10,09,23,44,20.90
2015,10,09,23,45,28.70
2015,10,09,23,46,16.00
2015,10,09,23,47,31.90
2015,10,09,23,48,28.80
2015,10,09,23,49,25.10
2015,10,09,23,50,22.20
2015,10,09,23,51,24.20
2015,10,09,23,52,24.30
2015,10,09,23,53,15.90
2015,10,09,23,54,22.30
2015,10,09,23,55,26.30
2015,10,09,23,56,26.30
2015,10,09,23,57,17.90
2015,10,09,23,58,29.40
2015,10,09,23,59,19.10
